Regional Weather Roundup
Issued by NWS

Home | Current Version | Previous Version | Text Only | Print | Product List | Glossary On
Versions: 1 2 3 4 5 6 7 8 9 10 11 12 13 14 15 16 17 18 19 20 21 22 23 24 25 26 27 28 29 30 31 32 33 34 35 36 37 38 39 40 41 42 43 44 45 46 47 48 49 50
757
ASUS44 KJAN 050410
RWRMS

MISSISSIPPI HOURLY WEATHER ROUNDUP
NATIONAL WEATHER SERVICE JACKSON MS
1000 PM CST SUN DEC 04 2016

NOTE: "FAIR: INDICATES FEW OR NO CLOUDS BELOW 12,000 FEET WITH NO
SIGNIFICANT WEATHER AND/OR OBSTRUCTIONS TO VISIBILITY.

MSZ001>002-007>008-010>013-018>021-025>028-034>036-050500-
NORTHWEST MISSISSIPPI

CITY           SKY/WX    TMP DP  RH WIND       PRES   REMARKS
CLEVELAND      FAIR      45  45 100 N6        30.05R
GREENWOOD      CLOUDY    48  43  82 N7        30.04R
GREENVILLE     MOCLDY    46  42  86 N7        30.06R
OXFORD         CLOUDY    45  41  87 NE5       30.06F
WINONA         CLOUDY    47  46  97 NE7       30.03R
$$

MSZ003>006-009-014>017-022>024-029>033-037>039-050500-
NORTHEAST MISSISSIPPI

CITY           SKY/WX    TMP DP  RH WIND       PRES   REMARKS
COLUMBUS AFB   CLOUDY    49  48  94 VRB7      30.01F
GOLDN TRIANGLE CLOUDY    48  45  87 N7        29.97F
STARKVILLE     CLOUDY    48  46  93 N6        30.04S
TUPELO         CLOUDY    49  45  86 NW5       30.05S
$$

MSZ040-058-050500-
CENTRAL MISSISSIPPI

CITY           SKY/WX    TMP DP  RH WIND       PRES   REMARKS
JACKSON INTL   CLOUDY    50  47  89 N9        30.01R
JACKSON HAWKNS CLOUDY    49  46  90 VRB5      30.02R
MADISON        CLOUDY    46  45  93 CALM      30.02R
MERIDIAN KEY   CLOUDY    54  51  90 NE8       29.97F
MERIDIAN NAS   LGT RAIN  53  49  86 N5        30.00F
VICKSBURG VKS  CLOUDY    50  46  87 NE5       30.02S
$$

MSZ059>079-050500-
SOUTH MISSISSIPPI

CITY           SKY/WX    TMP DP  RH WIND       PRES   REMARKS
COLUMBIA       LGT RAIN  54  54 100 CALM      30.00F
HATTIESBURG    LGT RAIN  57  56  96 NW3       30.01R
LAUREL         CLOUDY    55  55 100 N3        29.99F
MCCOMB         CLOUDY    52  50  93 CALM      29.97F
NATCHEZ        CLOUDY    48  45  87 N8        30.01F
PINE BELT      CLOUDY    55  52  88 CALM      30.01S
$$

MSZ080>082-050500-
COASTAL MISSISSIPPI

CITY           SKY/WX    TMP DP  RH WIND       PRES   REMARKS
BILOXI         CLOUDY    61  61 100 E5        29.95F
PASCAGOULA     CLOUDY    62  60  93 NW3       30.00R
GULFPORT       LGT RAIN  62  61  96 NE3       29.96F
$$

LAZ007>009-015>016-023>026-050500-
NORTHEAST LOUISIANA

CITY           SKY/WX    TMP DP  RH WIND       PRES   REMARKS
BASTROP        CLOUDY    46  46  98 CALM      30.07R
TALLULAH/VBURG CLOUDY    49  46  90 N9        30.04R
VIDALIA        CLOUDY    49  47  92 N8        30.05R
$$




USA.gov is the U.S. government's official web portal to all federal, state and local government web resources and services.